Alice, TX

3:24 AM CDT on June 29, 2017 (GMT -0500)
Alice International

Weather History for KALI - December, 2012

Change the Weather History Date:

Friday, December 21, 2012

  Actual Average Record
Temperature  
Mean Temperature 46 °F -  
Max Temperature 57 °F 65 °F 86 °F (2010)
Min Temperature 35 °F 42 °F 35 °F (2012)
Degree Days  
Heating Degree Days 19    
Moisture  
Dew Point 14 °F    
Average Humidity 28    
Maximum Humidity 41    
Minimum Humidity 10    
Precipitation  
Precipitation 0.00 in - - ()
Sea Level Pressure  
Sea Level Pressure 30.45 in    
Wind  
Wind Speed 6 mph (NNE)    
Max Wind Speed 9 mph    
Max Gust Speed -    
Visibility 10 miles    
Events      
Averages and records for this station are not official NWS values.
T = Trace of Precipitation, MM = Missing Value Source: NWS Daily Summary

Daily Weather History Graph

Daily Weather History Graph

Search for Another Location

Airport or City:

Trip Planner

Search our weather history database for the weather conditions in past years. The results will help you decide how hot, cold, wet, or windy it might be!

Date:

Astronomy

Dec. 21, 2012 Rise Set
Actual Time 7:18 AM CST 5:42 PM CST
Civil Twilight 6:53 AM CST 6:07 PM CST
Nautical Twilight 6:24 AM CST 6:37 PM CST
Astronomical Twilight 5:55 AM CST 7:05 PM CST
Moon 1:11 PM CST (12/21) 1:28 AM CST (12/21)
Length of Visible Light 11h 14m
Length of Day
10h 23m
Waxing Gibbous, 65% of the Moon is Illuminated
Dec 21
Waxing Gibbous
Dec 28
Full
Jan 4
Last Quarter
Jan 11
New
Jan 18
First Quarter

Hourly Weather History & Observations

Time (CST) Temp. Windchill Dew Point Humidity Pressure Visibility Wind Dir Wind Speed Gust Speed Precip Events Conditions
12:53 AM 39.0 °F 34.0 °F 10.0 °F 30% 30.49 in 10.0 mi NNW 6.9 mph - N/A   Clear
1:53 AM 37.9 °F 32.1 °F 12.0 °F 35% 30.48 in 10.0 mi NNW 8.1 mph - N/A   Clear
2:53 AM 37.0 °F 33.3 °F 12.0 °F 36% 30.49 in 10.0 mi NW 4.6 mph - N/A   Clear
3:53 AM 35.1 °F 28.6 °F 12.0 °F 39% 30.49 in 10.0 mi NNW 8.1 mph - N/A   Clear
4:53 AM 36.0 °F 29.6 °F 12.0 °F 37% 30.49 in 10.0 mi NNW 8.1 mph - N/A   Clear
5:53 AM 36.0 °F 32.1 °F 10.9 °F 36% 30.48 in 10.0 mi NNW 4.6 mph - N/A   Clear
6:53 AM 36.0 °F 33.3 °F 14.0 °F 41% 30.50 in 10.0 mi NNW 3.5 mph - N/A   Clear
7:53 AM 39.9 °F 35.8 °F 16.0 °F 38% 30.52 in 10.0 mi West 5.8 mph - N/A   Clear
8:53 AM 45.0 °F 42.6 °F 15.1 °F 30% 30.54 in 10.0 mi NW 4.6 mph - N/A   Clear
9:53 AM 50.0 °F - 10.9 °F 21% 30.55 in 10.0 mi Calm Calm - N/A   Clear
10:53 AM 53.1 °F - 8.1 °F 16% 30.54 in 10.0 mi NE 3.5 mph - N/A   Clear
11:53 AM 55.0 °F - 3.9 °F 13% 30.52 in 10.0 mi NE 3.5 mph - N/A   Clear
12:53 PM 55.9 °F - 3.9 °F 12% 30.48 in 10.0 mi ESE 4.6 mph - N/A   Clear
1:53 PM 57.0 °F - 3.9 °F 12% 30.44 in 10.0 mi East 8.1 mph - N/A   Partly Cloudy
2:53 PM 57.9 °F - 1.9 °F 10% 30.42 in 10.0 mi ESE 6.9 mph - N/A   Clear
3:53 PM 57.9 °F - 5.0 °F 12% 30.38 in 10.0 mi East 9.2 mph - N/A   Clear
4:53 PM 57.9 °F - 12.9 °F 17% 30.40 in 10.0 mi ENE 6.9 mph - N/A   Clear
5:53 PM 55.9 °F - 21.9 °F 27% 30.38 in 10.0 mi East 6.9 mph - N/A   Clear
6:53 PM 54.0 °F - 21.0 °F 28% 30.39 in 10.0 mi East 5.8 mph - N/A   Clear
7:53 PM 50.0 °F - 26.1 °F 39% 30.39 in 10.0 mi ENE 4.6 mph - N/A   Clear
8:53 PM 46.9 °F - 21.0 °F 36% 30.38 in 10.0 mi NE 4.6 mph - N/A   Clear
9:53 PM 48.0 °F - 23.0 °F 37% 30.37 in 10.0 mi Calm Calm - N/A   Clear
10:53 PM 46.9 °F - 24.1 °F 41% 30.36 in 10.0 mi NE 5.8 mph - N/A   Clear
11:53 PM 46.9 °F - 23.0 °F 39% 30.36 in 10.0 mi NE 5.8 mph - N/A   Clear